Location: Dreilärchen
(47.9312°N, 8.6113°E)
Time: 01:50:00
(UTC+00:00)

GP-B - Pass Details

Date: 26 May 2022
Orbit: 630 x 634 km, 89.8° (Epoch: 26 June)

Event Time Altitude Azimuth Distance (km) Brightness Sun altitude
Rises 00:49:58 0° 358° (N) 2,941 7.8 -18.2°
Reaches altitude 10° 00:52:13 10° 355° (N) 2,027 6.6 -18.1°
Maximum altitude 00:56:37 60° 276° (W) 725 3.2 -17.8°
Enters shadow 00:58:13 36° 212° (SSW) 1,003 3.6 -17.7°
